Tracking 18980 objects as of 18-Feb-2018
HD Live streaming from Space Station
objects crossing your sky now

FENGYUN 1C DEB

Track FENGYUN 1C DEB now!
10-day predictions


NORAD ID: 31000
Int'l Code: 1999-025BCS
Perigee: 759.7 km
Apogee: 1,018.2 km
Inclination: 97.6 °
Period: 102.6 minutes
Semi major axis: 7259 km
RCS: 0.0095 m2 (small)
Launch date: May 10, 1999
Source: People's Republic of China (PRC)
Launch site: Taiyaun Space Center, China (TSC)

Note: This is SATELLITE DEBRIS
aabbcc
Your satellite tracking list
Your tracking list is empty




NASA's NSSDC Master Catalog

Two Line Element Set (TLE):
1 31000U 99025BCS 18048.21590992  .00000072  00000-0  57398-4 0  9992
2 31000  97.6050 143.1124 0178029  66.6139 324.3140 14.03468683559321
Source of the keplerian elements: AFSPC